Regional Weather Roundup
Issued by NWS

Home | Current Version | Previous Version | Graphics & Text | Print | Product List | Glossary On
Versions: 1 2 3 4 5 6 7 8 9 10 11 12 13 14 15 16 17 18 19 20 21 22 23 24 25 26 27 28 29 30 31 32 33 34 35 36 37 38 39 40 41 42 43 44 45 46 47 48 49 50
000
ASUS45 KCYS 181310
RWRWY

WYOMING REGIONAL WEATHER ROUNDUP
NATIONAL WEATHER SERVICE CHEYENNE WY
600 AM MST SAT NOV 18 2017

NOTE:  "FAIR" INDICATES FEW OR NO CLOUDS BELOW 12,000 FEET
WITH NO SIGNIFICANT WEATHER AND/OR OBSTRUCTIONS TO VISIBILITY.

WYZ001-181400-
YELLOWSTONE NATIONAL PARK

CITY           SKY/WX    TMP DP  RH WIND       PRES   REMARKS
LK YELLOWSTONE   N/A     -1  -4  87 NW3       30.26R
W YELLOWSTONE  NOT AVBL

$$
WYZ002>013-054>058-071-098>099-181400-
NORTHERN WYOMING

CITY           SKY/WX    TMP DP  RH WIND       PRES   REMARKS
JACKSON        FAIR       4   1  88 NE6       30.32R WCI  -7
CODY           FAIR      31  11  43 W13G39    30.14R WCI  21
GREYBULL       FAIR      21  16  81 SE9       30.17S WCI  11
WORLAND        FAIR      21  17  84 CALM      30.18R
SHERIDAN       FAIR      28  15  58 W12       30.13R WCI  18
BUFFALO        FAIR      26   6  42 VRB7      30.12R WCI  18
GILLETTE       FAIR      24  15  68 W12       30.11R WCI  13
HULETT         FAIR      28  19  69 SW6       30.10R WCI  22
NEWCASTLE      FAIR      23  18  80 N7        30.12R WCI  15

$$
WYZ014>020-022>026-101>103-181400-
CENTRAL WYOMING

CITY           SKY/WX    TMP DP  RH WIND       PRES   REMARKS
BIG PINEY      FAIR       3  -2  79 CALM      30.27R
PINEDALE       FAIR      10   3  72 NW9       30.27R WCI  -2
DUBOIS         FAIR      14   5  67 NW16      30.19R WCI  -2
LANDER         FAIR      20   5  52 CALM      30.17R
RIVERTON       FAIR      22   9  57 W10       30.16R WCI  11
CASPER         FAIR      18  12  77 SW9       30.17R WCI   7
DOUGLAS        FAIR      19  16  88 NW7       30.17R WCI  10

$$
WYZ021-027>030-104>119-181400-
SOUTHERN WYOMING

CITY           SKY/WX    TMP DP  RH WIND       PRES   REMARKS
EVANSTON       FAIR      10   8  92 SW12      30.34R WCI  -5
FORT BRIDGER   FAIR      14  12  92 W16       30.34R WCI  -2
ROCK SPRINGS   FAIR      16  11  80 SW21      30.28R WCI  -1
DIXON          FAIR       5   2  87 CALM      30.36R
RAWLINS        FAIR      17  13  84 W18       30.21R WCI   1
SARATOGA       FAIR      18  12  79 SW13      30.26R WCI   4
LARAMIE        FAIR      11   7  84 W8        30.13R WCI  -1
CHEYENNE       FAIR      22  13  68 NW12G20   30.13R WCI  10
TORRINGTON     FAIR      26  22  84 NW8       30.15R WCI  18
PINE BLUFFS    FAIR      27  19  74 NW15      30.15R WCI  15

$$



USA.gov is the U.S. government's official web portal to all federal, state and local government web resources and services.